* Astronomy

Members Login
Username 
 
Password 
    Remember Me  
Post Info TOPIC: Asteroid 2012 HY33


L

Posts: 131433
Date:
Asteroid 2012 HY33
Permalink  
 


Orbital elements:
2012 HY33                                                Earth MOID = 0.1624 AU
Epoch 2012 Mar. 14.0 TT = JDT 2456000.5                 MPC
M 293.49492              (2000.0)            P               Q
n   0.34827626     Peri.  270.34265     +0.87061555     +0.43658790
a   2.0007222      Node    63.78207     -0.28669856     +0.82482093
e   0.5438493      Incl.   14.64108     -0.39979056     +0.35925121
P   2.83           H   19.5           G   0.15           U   8

MPEC 2012 - H95



__________________
Page 1 of 1  sorted by
 
Quick Reply

Please log in to post quick replies.



Create your own FREE Forum
Report Abuse
Powered by ActiveBoard